TimeCST,TemperatureF,Dew PointF,Humidity,Sea Level PressureIn,VisibilityMPH,Wind Direction,Wind SpeedMPH,Gust SpeedMPH,PrecipitationIn,Events,Conditions,WindDirDegrees,DateUTC
12:15 AM,37.6,25.5,62,30.43,10.0,NNE,9.2,-,N/A,,Clear,20,2013-11-27 06:15:00
12:35 AM,37.4,24.8,60,30.43,10.0,NNE,10.4,-,N/A,,Clear,20,2013-11-27 06:35:00
12:55 AM,36.5,24.8,63,30.43,10.0,North,6.9,-,N/A,,Clear,10,2013-11-27 06:55:00
1:15 AM,35.6,24.8,65,30.44,10.0,North,4.6,-,N/A,,Clear,10,2013-11-27 07:15:00
1:35 AM,34.3,24.4,67,30.44,10.0,North,8.1,-,N/A,,Clear,10,2013-11-27 07:35:00
1:50 AM,33.8,24.3,68,30.44,10.0,North,5.8,-,N/A,,Clear,10,2013-11-27 07:50:00
2:15 AM,32.5,23.5,69,30.44,10.0,North,5.8,-,N/A,,Clear,360,2013-11-27 08:15:00
2:35 AM,32.2,23.5,70,30.44,10.0,North,5.8,-,N/A,,Clear,360,2013-11-27 08:35:00
2:55 AM,31.6,23.0,70,30.44,10.0,North,3.5,-,N/A,,Clear,350,2013-11-27 08:55:00
3:15 AM,32.0,23.0,69,30.44,10.0,North,3.5,-,N/A,,Clear,360,2013-11-27 09:15:00
3:35 AM,31.8,22.8,69,30.44,10.0,NNW,5.8,-,N/A,,Clear,340,2013-11-27 09:35:00
3:55 AM,31.6,23.0,70,30.44,10.0,North,9.2,-,N/A,,Clear,360,2013-11-27 09:55:00
4:15 AM,28.2,21.6,76,30.44,10.0,Calm,Calm,-,N/A,,Clear,0,2013-11-27 10:15:00
4:35 AM,29.3,23.0,77,30.44,10.0,NNW,4.6,-,N/A,,Clear,330,2013-11-27 10:35:00
4:55 AM,29.3,23.0,77,30.44,10.0,NNW,5.8,-,N/A,,Clear,340,2013-11-27 10:55:00
5:15 AM,28.6,22.1,77,30.45,10.0,NNW,4.6,-,N/A,,Clear,330,2013-11-27 11:15:00
5:35 AM,26.1,21.2,82,30.45,10.0,NW,3.5,-,N/A,,Clear,320,2013-11-27 11:35:00
5:55 AM,25.3,21.4,85,30.46,10.0,WNW,5.8,-,N/A,,Clear,290,2013-11-27 11:55:00
6:15 AM,25.9,23.2,90,30.46,10.0,WNW,4.6,-,N/A,,Clear,300,2013-11-27 12:15:00
6:35 AM,26.1,23.7,91,30.46,10.0,NW,4.6,-,N/A,,Clear,320,2013-11-27 12:35:00
6:55 AM,27.5,23.0,83,30.47,10.0,NNW,4.6,-,N/A,,Clear,340,2013-11-27 12:55:00
7:15 AM,27.5,23.0,83,30.47,10.0,North,5.8,-,N/A,,Clear,360,2013-11-27 13:15:00
7:35 AM,27.7,23.0,83,30.47,10.0,North,5.8,-,N/A,,Clear,350,2013-11-27 13:35:00
7:55 AM,29.7,22.8,76,30.48,10.0,North,4.6,-,N/A,,Clear,350,2013-11-27 13:55:00
8:15 AM,30.2,23.0,75,30.48,10.0,NNW,4.6,-,N/A,,Clear,340,2013-11-27 14:15:00
8:35 AM,32.2,23.0,69,30.49,10.0,NNW,4.6,-,N/A,,Clear,340,2013-11-27 14:35:00
8:55 AM,33.4,21.9,63,30.49,10.0,North,8.1,-,N/A,,Clear,360,2013-11-27 14:55:00
9:15 AM,34.2,21.4,60,30.49,10.0,North,5.8,-,N/A,,Clear,360,2013-11-27 15:15:00
9:35 AM,35.2,19.6,53,30.49,10.0,North,5.8,-,N/A,,Clear,10,2013-11-27 15:35:00
9:55 AM,36.3,17.1,46,30.48,10.0,NNE,6.9,-,N/A,,Clear,30,2013-11-27 15:55:00
10:15 AM,37.0,17.2,45,30.48,10.0,North,4.6,-,N/A,,Clear,360,2013-11-27 16:15:00
10:35 AM,37.6,17.8,45,30.47,10.0,NNW,4.6,-,N/A,,Clear,330,2013-11-27 16:35:00
10:55 AM,38.7,17.4,42,30.47,10.0,Calm,Calm,-,N/A,,Clear,0,2013-11-27 16:55:00
11:15 AM,39.4,16.9,40,30.47,10.0,Calm,Calm,-,N/A,,Clear,0,2013-11-27 17:15:00
11:35 AM,40.8,16.0,37,30.46,10.0,Calm,Calm,-,N/A,,Clear,0,2013-11-27 17:35:00
11:55 AM,41.2,14.9,34,30.45,10.0,NW,6.9,-,N/A,,Clear,310,2013-11-27 17:55:00
12:15 PM,42.6,15.1,33,30.44,10.0,Calm,Calm,-,N/A,,Clear,0,2013-11-27 18:15:00
12:35 PM,42.8,15.3,33,30.43,10.0,Calm,Calm,-,N/A,,Clear,0,2013-11-27 18:35:00
12:55 PM,43.0,15.1,32,30.42,10.0,Calm,Calm,-,N/A,,Clear,0,2013-11-27 18:55:00
1:15 PM,44.6,15.8,31,30.40,10.0,Calm,Calm,-,N/A,,Clear,0,2013-11-27 19:15:00
1:35 PM,45.7,15.6,30,30.38,10.0,NW,4.6,-,N/A,,Clear,310,2013-11-27 19:35:00
1:55 PM,45.0,15.8,31,30.37,10.0,Calm,Calm,-,N/A,,Clear,0,2013-11-27 19:55:00
2:15 PM,46.6,16.7,30,30.35,10.0,Calm,Calm,-,N/A,,Clear,0,2013-11-27 20:15:00
2:35 PM,46.9,17.1,30,30.35,10.0,Calm,Calm,-,N/A,,Clear,0,2013-11-27 20:35:00
2:55 PM,47.1,17.6,31,30.34,10.0,West,3.5,-,N/A,,Clear,270,2013-11-27 20:55:00
3:15 PM,46.8,17.1,31,30.34,10.0,Calm,Calm,-,N/A,,Clear,0,2013-11-27 21:15:00
3:55 PM,46.9,17.2,31,30.34,10.0,Calm,Calm,-,N/A,,Clear,0,2013-11-27 21:55:00
4:15 PM,47.1,17.4,31,30.34,10.0,Calm,Calm,-,N/A,,Clear,0,2013-11-27 22:15:00
4:35 PM,46.4,16.7,31,30.33,10.0,Calm,Calm,-,N/A,,Clear,0,2013-11-27 22:35:00
4:55 PM,45.7,16.9,32,30.34,10.0,North,-9999.0,-,N/A,,Clear,0,2013-11-27 22:55:00
5:15 PM,44.8,18.3,35,30.34,10.0,Calm,Calm,-,N/A,,Clear,0,2013-11-27 23:15:00
5:35 PM,43.7,18.1,36,30.34,10.0,Calm,Calm,-,N/A,,Clear,0,2013-11-27 23:35:00
5:55 PM,43.5,17.2,35,30.34,10.0,Calm,Calm,-,N/A,,Clear,0,2013-11-27 23:55:00
6:15 PM,42.3,17.8,37,30.34,10.0,SSE,3.5,-,N/A,,Clear,150,2013-11-28 00:15:00
6:35 PM,37.8,21.4,52,30.34,10.0,SE,4.6,-,N/A,,Clear,140,2013-11-28 00:35:00
6:55 PM,38.8,20.1,47,30.34,10.0,SE,5.8,-,N/A,,Clear,140,2013-11-28 00:55:00
7:15 PM,38.5,20.3,48,30.34,10.0,SE,5.8,-,N/A,,Clear,140,2013-11-28 01:15:00
7:35 PM,37.4,20.7,51,30.33,10.0,SE,6.9,-,N/A,,Clear,140,2013-11-28 01:35:00
7:55 PM,36.5,21.2,54,30.33,10.0,SE,6.9,-,N/A,,Clear,140,2013-11-28 01:55:00
8:15 PM,36.9,20.8,52,30.33,10.0,SSE,6.9,-,N/A,,Clear,150,2013-11-28 02:15:00
8:35 PM,35.6,22.1,58,30.34,10.0,SSE,6.9,-,N/A,,Clear,150,2013-11-28 02:35:00
8:55 PM,35.2,22.3,59,30.33,10.0,SE,6.9,-,N/A,,Clear,140,2013-11-28 02:55:00
9:15 PM,34.0,22.3,62,30.33,10.0,SSE,6.9,-,N/A,,Clear,150,2013-11-28 03:15:00
9:35 PM,34.0,22.8,64,30.35,10.0,South,5.8,-,N/A,,Clear,180,2013-11-28 03:35:00
9:55 PM,34.7,22.3,61,30.34,10.0,South,3.5,-,N/A,,Clear,170,2013-11-28 03:55:00
10:15 PM,34.9,22.5,61,30.35,10.0,South,5.8,-,N/A,,Clear,180,2013-11-28 04:15:00
10:35 PM,34.5,22.5,61,30.33,10.0,SSE,4.6,-,N/A,,Clear,160,2013-11-28 04:35:00
10:55 PM,34.2,22.5,62,30.31,10.0,SE,5.8,-,N/A,,Clear,130,2013-11-28 04:55:00
11:15 PM,34.0,23.7,66,30.33,10.0,SSW,5.8,-,N/A,,Clear,200,2013-11-28 05:15:00
11:35 PM,34.7,22.3,61,30.32,10.0,SSE,4.6,-,N/A,,Clear,150,2013-11-28 05:35:00
11:55 PM,34.9,21.7,59,30.32,10.0,SSE,5.8,-,N/A,,Clear,160,2013-11-28 05:55:00